When you browse on this site, cookies collect data to enhance your experience and personalize the content and advertising you see.
Visit our Privacy Policy to learn more. By continuing to use the site, you agree to this use of cookies and data.
  • In Germany
  • List of Countries
  • For 7 days
  • Water Temperature
  • Satellite Maps
  • Weather Map
  • Weather Widgets
  • user-avatar
    Login

    Hourly Weather Elan

    Today, 18 February, Monday

    Time Temperature Precipitation Wind Pressure Humidity
    00:00 -15°C° 0 mm 1 mps 699 mmHg 73%
    01:00 -15°C° 0 mm 1 mps 698 mmHg 72%
    02:00 -16°C° 0 mm 1 mps 698 mmHg 72%
    03:00 -16°C° 0 mm 1 mps 698 mmHg 72%
    04:00 -16°C° 0 mm 1 mps 698 mmHg 72%
    05:00 -16°C° 0 mm 1 mps 698 mmHg 72%
    06:00 -17°C° 0 mm 1 mps 698 mmHg 71%
    07:00 -16°C° 0 mm 1 mps 698 mmHg 70%
    08:00 -14°C° 0 mm 1 mps 697 mmHg 66%
    09:00 -11°C° 0 mm 1 mps 697 mmHg 63%
    10:00 -9°C° 0 mm 1 mps 697 mmHg 60%
    11:00 -8°C° 0 mm 1 mps 697 mmHg 58%
    12:00 -6°C° 0 mm 1 mps 696 mmHg 55%
    13:00 -4°C° 0 mm 1 mps 696 mmHg 53%
    14:00 -6°C° 0 mm 1 mps 696 mmHg 58%
    15:00 -6°C° 0 mm 1 mps 696 mmHg 62%
    16:00 -7°C° 0 mm 1 mps 695 mmHg 67%
    17:00 -9°C° 0 mm 1 mps 695 mmHg 69%
    18:00 -11°C° 0 mm 1 mps 695 mmHg 71%
    19:00 -14°C° 0 mm 0 mps 695 mmHg 73%
    20:00 -14°C° 0 mm 0 mps 696 mmHg 73%
    21:00 -14°C° 0 mm 1 mps 696 mmHg 73%
    22:00 -15°C° 0 mm 1 mps 696 mmHg 73%
    23:00 -15°C° 0 mm 1 mps 696 mmHg 73%

    Tomorrow, 19 February, Tuesday

    Time Temperature Precipitation Wind Pressure Humidity
    00:00 -16°C° 0 mm 1 mps 696 mmHg 73%
    01:00 -16°C° 0 mm 1 mps 696 mmHg 74%
    02:00 -16°C° 0 mm 1 mps 697 mmHg 74%
    03:00 -16°C° 0 mm 1 mps 697 mmHg 74%
    04:00 -17°C° 0 mm 1 mps 697 mmHg 74%
    05:00 -17°C° 0 mm 1 mps 697 mmHg 75%
    06:00 -17°C° 0 mm 1 mps 698 mmHg 75%
    07:00 -17°C° 0 mm 1 mps 698 mmHg 75%
    08:00 -14°C° 0 mm 1 mps 699 mmHg 70%
    09:00 -12°C° 0 mm 1 mps 699 mmHg 65%
    10:00 -9°C° 0 mm 1 mps 699 mmHg 60%
    11:00 -8°C° 0 mm 1 mps 699 mmHg 59%
    12:00 -7°C° 0 mm 1 mps 699 mmHg 57%
    13:00 -4°C° 0 mm 1 mps 699 mmHg 56%
    14:00 -6°C° 0 mm 1 mps 699 mmHg 60%
    15:00 -6°C° 0 mm 1 mps 699 mmHg 64%
    16:00 -6°C° 0 mm 1 mps 699 mmHg 69%
    17:00 -8°C° 0 mm 1 mps 700 mmHg 71%
    18:00 -10°C° 0 mm 1 mps 700 mmHg 74%
    19:00 -12°C° 0 mm 1 mps 701 mmHg 77%
    20:00 -13°C° 0 mm 1 mps 701 mmHg 76%
    21:00 -13°C° 0 mm 1 mps 702 mmHg 75%
    22:00 -13°C° 0 mm 1 mps 702 mmHg 74%
    23:00 -13°C° 0 mm 1 mps 702 mmHg 74%

    Day after tomorrow, 20 February, Wednesday

    Time Temperature Precipitation Wind Pressure Humidity
    00:00 -14°C° 0 mm 1 mps 702 mmHg 73%
    01:00 -14°C° 0 mm 1 mps 703 mmHg 72%
    02:00 -14°C° 0 mm 1 mps 703 mmHg 72%
    03:00 -14°C° 0 mm 1 mps 703 mmHg 72%
    04:00 -14°C° 0 mm 1 mps 703 mmHg 72%
    05:00 -14°C° 0 mm 1 mps 703 mmHg 72%
    06:00 -14°C° 0 mm 1 mps 703 mmHg 71%
    07:00 -14°C° 0 mm 1 mps 704 mmHg 71%
    08:00 -12°C° 0 mm 1 mps 704 mmHg 67%
    09:00 -9°C° 0 mm 1 mps 704 mmHg 63%
    10:00 -7°C° 0 mm 1 mps 705 mmHg 59%
    11:00 -4°C° 0 mm 1 mps 704 mmHg 58%
    12:00 -3°C° 0 mm 1 mps 704 mmHg 56%
    13:00 -2°C° 0 mm 1 mps 704 mmHg 55%
    14:00 -2°C° 0 mm 1 mps 703 mmHg 59%
    15:00 -3°C° 0 mm 1 mps 703 mmHg 63%
    16:00 -3°C° 0 mm 1 mps 703 mmHg 68%
    17:00 -6°C° 0 mm 1 mps 703 mmHg 70%
    18:00 -8°C° 0 mm 0 mps 704 mmHg 72%
    19:00 -10°C° 0 mm 0 mps 704 mmHg 74%
    20:00 -10°C° 0 mm 0 mps 704 mmHg 74%
    21:00 -11°C° 0 mm 1 mps 704 mmHg 74%
    22:00 -11°C° 0 mm 1 mps 705 mmHg 74%
    23:00 -12°C° 0 mm 1 mps 705 mmHg 73%

    21 February, Thursday

    Time Temperature Precipitation Wind Pressure Humidity
    00:00 -12°C° 0 mm 1 mps 705 mmHg 73%
    01:00 -13°C° 0 mm 1 mps 705 mmHg 73%
    02:00 -13°C° 0 mm 1 mps 705 mmHg 72%
    03:00 -13°C° 0 mm 0 mps 705 mmHg 72%
    04:00 -14°C° 0 mm 0 mps 705 mmHg 72%
    05:00 -14°C° 0 mm 0 mps 705 mmHg 72%
    06:00 -14°C° 0 mm 1 mps 705 mmHg 71%
    07:00 -14°C° 0 mm 1 mps 705 mmHg 71%
    08:00 -12°C° 0 mm 1 mps 706 mmHg 67%
    09:00 -9°C° 0 mm 1 mps 706 mmHg 63%
    10:00 -7°C° 0 mm 1 mps 706 mmHg 59%
    11:00 -6°C° 0 mm 1 mps 706 mmHg 58%
    12:00 -3°C° 0 mm 1 mps 705 mmHg 57%
    13:00 -2°C° 0 mm 1 mps 705 mmHg 56%
    14:00 -3°C° 0 mm 0 mps 705 mmHg 60%
    15:00 -4°C° 0 mm 0 mps 704 mmHg 64%
    16:00 -4°C° 0 mm 0 mps 704 mmHg 68%
    17:00 -6°C° 0 mm 0 mps 704 mmHg 71%
    18:00 -8°C° 0 mm 0 mps 704 mmHg 74%
    19:00 -10°C° 0 mm 0 mps 704 mmHg 77%
    20:00 -10°C° 0 mm 1 mps 705 mmHg 77%
    21:00 -11°C° 0 mm 1 mps 705 mmHg 78%
    22:00 -11°C° 0 mm 1 mps 705 mmHg 79%
    23:00 -11°C° 0 mm 1 mps 705 mmHg 79%

    22 February, Friday

    Time Temperature Precipitation Wind Pressure Humidity
    00:00 -11°C° 0 mm 1 mps 705 mmHg 80%
    01:00 -12°C° 0 mm 1 mps 705 mmHg 80%
    02:00 -12°C° 0 mm 1 mps 704 mmHg 80%
    03:00 -12°C° 0 mm 1 mps 704 mmHg 80%
    04:00 -12°C° 0 mm 1 mps 704 mmHg 80%
    05:00 -12°C° 0 mm 1 mps 705 mmHg 80%
    06:00 -14°C° 0 mm 2 mps 705 mmHg 80%
    07:00 -15°C° 0 mm 2 mps 705 mmHg 80%
    08:00 -10°C° 0 mm 1 mps 705 mmHg 76%
    09:00 -8°C° 0 mm 1 mps 705 mmHg 72%
    10:00 -6°C° 0 mm 1 mps 706 mmHg 68%
    11:00 -4°C° 0 mm 1 mps 705 mmHg 65%
    12:00 -3°C° 0 mm 1 mps 705 mmHg 61%
    13:00 -2°C° 0 mm 1 mps 705 mmHg 58%
    14:00 -2°C° 0 mm 1 mps 705 mmHg 62%
    15:00 -3°C° 0 mm 1 mps 704 mmHg 66%
    16:00 -4°C° 0 mm 1 mps 704 mmHg 70%
    17:00 -6°C° 0 mm 1 mps 705 mmHg 72%
    18:00 -7°C° 0 mm 0 mps 706 mmHg 75%
    19:00 -9°C° 0 mm 0 mps 706 mmHg 78%
    20:00 -9°C° 0 mm 0 mps 706 mmHg 79%
    21:00 -9°C° 0 mm 0 mps 707 mmHg 80%
    22:00 -9°C° 0 mm 0 mps 707 mmHg 81%
    23:00 -10°C° 0 mm 0 mps 707 mmHg 83%

    23 February, Saturday

    Time Temperature Precipitation Wind Pressure Humidity
    00:00 -10°C° 0 mm 0 mps 707 mmHg 85%
    01:00 -10°C° 0 mm 0 mps 707 mmHg 88%
    02:00 -11°C° 0 mm 0 mps 707 mmHg 89%
    03:00 -11°C° 0 mm 0 mps 707 mmHg 90%
    04:00 -12°C° 0 mm 0 mps 708 mmHg 91%
    05:00 -12°C° 0 mm 0 mps 708 mmHg 92%
    06:00 -12°C° 0 mm 0 mps 708 mmHg 92%
    07:00 -12°C° 0 mm 0 mps 708 mmHg 92%
    08:00 -10°C° 0 mm 0 mps 708 mmHg 87%
    09:00 -8°C° 0 mm 0 mps 709 mmHg 82%
    10:00 -5°C° 0 mm 0 mps 709 mmHg 76%
    11:00 -4°C° 0 mm 0 mps 709 mmHg 74%
    12:00 -3°C° 0 mm 1 mps 708 mmHg 71%
    13:00 -2°C° 0 mm 1 mps 708 mmHg 68%
    14:00 -2°C° 0 mm 1 mps 707 mmHg 70%
    15:00 -3°C° 0 mm 0 mps 707 mmHg 73%
    16:00 -4°C° 0 mm 0 mps 707 mmHg 75%
    17:00 -6°C° 0 mm 0 mps 707 mmHg 78%
    18:00 -7°C° 0 mm 0 mps 707 mmHg 81%
    19:00 -9°C° 0 mm 0 mps 708 mmHg 84%
    20:00 -10°C° 0 mm 0 mps 708 mmHg 85%
    21:00 -10°C° 0 mm 1 mps 708 mmHg 85%
    22:00 -10°C° 0 mm 1 mps 708 mmHg 86%
    23:00 -11°C° 0 mm 1 mps 708 mmHg 86%
    Show more